| time (UTC) | temp F | wind direction | speed MPH | gust MPH | rain 1hr in | rain 24hr in | rain mn in | humidity % | barometer mb |
| 20260508174546 | 71 | 308 | 4.0 | 11.0 | 0.00 | 0.00 | 0.00 | 38 | 1015.3 |
| 20260508173043 | 70 | 273 | 3.0 | 7.0 | 0.00 | 0.00 | 0.00 | 40 | 1015.5 |
| 20260508171544 | 69 | 289 | 4.0 | 8.0 | 0.00 | 0.00 | 0.00 | 40 | 1015.7 |
| 20260508170043 | 69 | 0 | 4.0 | 9.0 | 0.00 | 0.00 | 0.00 | 36 | 1016.0 |
| 20260508164545 | 69 | 6 | 3.0 | 7.0 | 0.00 | 0.00 | 0.00 | 38 | 1016.1 |
| 20260508163047 | 69 | 18 | 2.0 | 8.0 | 0.00 | 0.00 | 0.00 | 38 | 1016.3 |
| 20260508161543 | 67 | 300 | 3.0 | 12.0 | 0.00 | 0.00 | 0.00 | 42 | 1016.4 |
| 20260508160059 | 67 | 3 | 3.0 | 8.0 | 0.00 | 0.00 | 0.00 | 42 | 1016.8 |
| 20260508154539 | 67 | 41 | 2.0 | 8.0 | 0.00 | 0.00 | 0.00 | 45 | 1017.0 |
| 20260508153047 | 66 | 27 | 3.0 | 9.0 | 0.00 | 0.00 | 0.00 | 45 | 1017.1 |
| 20260508151549 | 65 | 2 | 4.0 | 9.0 | 0.00 | 0.00 | 0.00 | 48 | 1017.3 |
| 20260508150043 | 65 | 339 | 3.0 | 7.0 | 0.00 | 0.00 | 0.00 | 52 | 1017.4 |
| 20260508144543 | 64 | 47 | 3.0 | 10.0 | 0.00 | 0.00 | 0.00 | 52 | 1017.4 |
| 20260508143053 | 63 | 308 | 5.0 | 9.0 | 0.00 | 0.00 | 0.00 | 54 | 1017.6 |
| 20260508141548 | 62 | 49 | 3.0 | 8.0 | 0.00 | 0.00 | 0.00 | 56 | 1017.6 |
| 20260508140041 | 60 | 11 | 3.0 | 8.0 | 0.00 | 0.00 | 0.00 | 58 | 1017.8 |
| 20260508134542 | 59 | 20 | 3.0 | 6.0 | 0.00 | 0.00 | 0.00 | 63 | 1017.9 |
| 20260508133052 | 56 | 34 | 1.0 | 3.0 | 0.00 | 0.00 | 0.00 | 71 | 1018.1 |
| 20260508131536 | 53 | 32 | 1.0 | 4.0 | 0.00 | 0.00 | 0.00 | 76 | 1017.9 |
| 20260508130036 | 51 | 0 | 0.0 | 0.0 | 0.00 | 0.00 | 0.00 | 80 | 1018.0 |
| 20260508124538 | 48 | 0 | 0.0 | 0.0 | 0.00 | 0.00 | 0.00 | 87 | 1017.9 |
| 20260508123043 | 45 | 0 | 0.0 | 0.0 | 0.00 | 0.00 | 0.00 | 94 | 1017.8 |
| 20260508121559 | 44 | 0 | 0.0 | 0.0 | 0.00 | 0.00 | 0.00 | 96 | 1017.7 |
| 20260508120039 | 42 | 0 | 0.0 | 0.0 | 0.00 | 0.00 | 0.00 | 97 | 1017.5 |
| 20260508114542 | 41 | 0 | 0.0 | 0.0 | 0.00 | 0.00 | 0.00 | 97 | 1017.4 |
| 20260508113035 | 40 | 0 | 0.0 | 0.0 | 0.00 | 0.00 | 0.00 | 96 | 1017.3 |
| 20260508111544 | 40 | 0 | 0.0 | 0.0 | 0.00 | 0.00 | 0.00 | 96 | 1017.2 |
| 20260508110047 | 40 | 0 | 0.0 | 0.0 | 0.00 | 0.00 | 0.00 | 96 | 1017.1 |
| 20260508104539 | 40 | 0 | 0.0 | 0.0 | 0.00 | 0.00 | 0.00 | 96 | 1016.7 |
| 20260508103040 | 41 | 0 | 0.0 | 0.0 | 0.00 | 0.00 | 0.00 | 96 | 1016.7 |
| 20260508101542 | 41 | 0 | 0.0 | 0.0 | 0.00 | 0.00 | 0.00 | 96 | 1016.7 |
| 20260508100035 | 41 | 0 | 0.0 | 0.0 | 0.00 | 0.00 | 0.00 | 96 | 1016.6 |
| 20260508094547 | 41 | 0 | 0.0 | 0.0 | 0.00 | 0.00 | 0.00 | 96 | 1016.5 |
| 20260508093039 | 42 | 0 | 0.0 | 0.0 | 0.00 | 0.00 | 0.00 | 96 | 1016.4 |
| 20260508091539 | 42 | 0 | 0.0 | 0.0 | 0.00 | 0.00 | 0.00 | 96 | 1016.3 |
| 20260508090047 | 42 | 0 | 0.0 | 0.0 | 0.00 | 0.00 | 0.00 | 96 | 1016.1 |
| 20260508084538 | 43 | 0 | 0.0 | 0.0 | 0.00 | 0.00 | 0.00 | 96 | 1016.1 |
| 20260508083122 | 43 | 0 | 0.0 | 0.0 | 0.00 | 0.00 | 0.00 | 96 | 1016.2 |
| 20260508081548 | 43 | 0 | 0.0 | 0.0 | 0.00 | 0.00 | 0.00 | 95 | 1016.3 |
| 20260508080046 | 43 | 0 | 0.0 | 0.0 | 0.00 | 0.00 | 0.00 | 95 | 1016.4 |
| 20260508074539 | 43 | 0 | 0.0 | 0.0 | 0.00 | 0.00 | 0.00 | 95 | 1016.5 |
| 20260508073039 | 44 | 0 | 0.0 | 0.0 | 0.00 | 0.00 | 0.00 | 94 | 1016.7 |
| 20260508071544 | 44 | 0 | 0.0 | 0.0 | 0.00 | 0.00 | 0.00 | 94 | 1016.8 |
| 20260508070044 | 44 | 0 | 0.0 | 0.0 | 0.00 | 0.00 | 0.00 | 94 | 1016.7 |
| 20260508064600 | 44 | 0 | 0.0 | 0.0 | 0.00 | 0.00 | 0.00 | 94 | 1016.8 |
| 20260508063045 | 45 | 0 | 0.0 | 0.0 | 0.00 | 0.00 | 0.00 | 94 | 1016.8 |
| 20260508061545 | 45 | 0 | 0.0 | 0.0 | 0.00 | 0.00 | 0.00 | 94 | 1017.0 |
| 20260508060045 | 45 | 0 | 0.0 | 0.0 | 0.00 | 0.00 | 0.00 | 93 | 1017.0 |
| 20260508054541 | 45 | 0 | 0.0 | 0.0 | 0.00 | 0.00 | 0.00 | 93 | 1017.0 |
| 20260508053038 | 46 | 0 | 0.0 | 0.0 | 0.00 | 0.00 | 0.00 | 93 | 1016.9 |
| 20260508051539 | 46 | 0 | 0.0 | 0.0 | 0.00 | 0.00 | 0.00 | 92 | 1017.0 |
| 20260508050051 | 46 | 0 | 0.0 | 0.0 | 0.00 | 0.00 | 0.00 | 92 | 1016.9 |
| 20260508044545 | 47 | 0 | 0.0 | 0.0 | 0.00 | 0.00 | 0.00 | 92 | 1016.8 |
| 20260508043040 | 47 | 0 | 0.0 | 0.0 | 0.00 | 0.00 | 0.00 | 91 | 1017.0 |
| 20260508041540 | 47 | 0 | 0.0 | 0.0 | 0.00 | 0.00 | 0.00 | 90 | 1017.0 |
| 20260508040045 | 47 | 0 | 0.0 | 0.0 | 0.00 | 0.00 | 0.00 | 90 | 1017.3 |
| 20260508034542 | 48 | 0 | 0.0 | 0.0 | 0.00 | 0.00 | 0.00 | 89 | 1017.3 |
| 20260508033042 | 48 | 0 | 0.0 | 0.0 | 0.00 | 0.00 | 0.00 | 87 | 1017.3 |
| 20260508031541 | 49 | 0 | 0.0 | 0.0 | 0.00 | 0.00 | 0.00 | 87 | 1017.2 |
| 20260508030041 | 50 | 0 | 0.0 | 0.0 | 0.00 | 0.00 | 0.00 | 86 | 1017.0 |
| 20260508024551 | 50 | 0 | 0.0 | 0.0 | 0.00 | 0.01 | 0.00 | 85 | 1016.8 |
| 20260508023042 | 51 | 0 | 0.0 | 1.0 | 0.00 | 0.01 | 0.00 | 84 | 1016.8 |
| 20260508021544 | 51 | 0 | 0.0 | 0.0 | 0.00 | 0.01 | 0.00 | 83 | 1016.6 |
| 20260508020046 | 52 | 0 | 0.0 | 1.0 | 0.00 | 0.01 | 0.00 | 81 | 1016.5 |
| 20260508014537 | 53 | 69 | 0.0 | 1.0 | 0.00 | 0.03 | 0.00 | 79 | 1016.5 |
| 20260508013038 | 54 | 0 | 0.0 | 0.0 | 0.00 | 0.03 | 0.00 | 75 | 1016.4 |
| 20260508011548 | 55 | 70 | 0.0 | 1.0 | 0.00 | 0.03 | 0.00 | 72 | 1016.3 |
| 20260508010056 | 57 | 0 | 0.0 | 1.0 | 0.00 | 0.03 | 0.00 | 68 | 1015.9 |
| 20260508004554 | 59 | 0 | 0.0 | 1.0 | 0.00 | 0.04 | 0.00 | 65 | 1015.7 |
| 20260508003041 | 60 | 0 | 0.0 | 1.0 | 0.00 | 0.04 | 0.00 | 57 | 1015.6 |
| 20260508001547 | 62 | 0 | 0.0 | 1.0 | 0.00 | 0.04 | 0.00 | 51 | 1015.5 |
| 20260508000044 | 63 | 81 | 0.0 | 2.0 | 0.00 | 0.04 | 0.00 | 47 | 1015.4 |
| 20260507234541 | 64 | 0 | 1.0 | 6.0 | 0.00 | 0.04 | 0.00 | 45 | 1015.3 |
| 20260507233040 | 66 | 0 | 1.0 | 5.0 | 0.00 | 0.04 | 0.00 | 43 | 1015.3 |
| 20260507231541 | 67 | 87 | 0.0 | 5.0 | 0.00 | 0.04 | 0.00 | 43 | 1015.2 |
| 20260507230039 | 68 | 121 | 0.0 | 3.0 | 0.00 | 0.04 | 0.00 | 42 | 1015.2 |
| 20260507224537 | 67 | 85 | 2.0 | 5.0 | 0.00 | 0.06 | 0.00 | 42 | 1015.1 |
| 20260507223043 | 67 | 63 | 2.0 | 7.0 | 0.00 | 0.06 | 0.00 | 42 | 1015.1 |
| 20260507221539 | 68 | 0 | 1.0 | 3.0 | 0.00 | 0.06 | 0.00 | 41 | 1015.1 |
| 20260507220039 | 67 | 41 | 4.0 | 7.0 | 0.00 | 0.06 | 0.00 | 41 | 1015.2 |
| 20260507214538 | 69 | 115 | 1.0 | 3.0 | 0.00 | 0.06 | 0.00 | 43 | 1015.2 |
| 20260507213035 | 69 | 108 | 1.0 | 5.0 | 0.00 | 0.06 | 0.00 | 42 | 1015.2 |
| 20260507211544 | 69 | 120 | 1.0 | 3.0 | 0.00 | 0.06 | 0.00 | 41 | 1015.1 |
| 20260507210045 | 69 | 7 | 0.0 | 2.0 | 0.00 | 0.06 | 0.00 | 43 | 1015.2 |
| 20260507204548 | 67 | 267 | 2.0 | 9.0 | 0.00 | 0.06 | 0.00 | 45 | 1015.2 |
| 20260507203038 | 68 | 59 | 2.0 | 5.0 | 0.00 | 0.06 | 0.00 | 43 | 1015.3 |
| 20260507201544 | 67 | 70 | 1.0 | 4.0 | 0.00 | 0.06 | 0.00 | 44 | 1015.4 |
| 20260507200043 | 66 | 62 | 3.0 | 7.0 | 0.00 | 0.06 | 0.00 | 42 | 1015.5 |
| 20260507194540 | 67 | 56 | 1.0 | 10.0 | 0.00 | 0.06 | 0.00 | 43 | 1015.3 |
| 20260507193040 | 66 | 257 | 2.0 | 8.0 | 0.00 | 0.06 | 0.00 | 48 | 1015.5 |
| 20260507191539 | 66 | 95 | 2.0 | 11.0 | 0.00 | 0.06 | 0.00 | 49 | 1015.6 |
| 20260507190040 | 66 | 36 | 1.0 | 5.0 | 0.00 | 0.06 | 0.00 | 44 | 1015.8 |
| 20260507184544 | 66 | 139 | 2.0 | 7.0 | 0.00 | 0.06 | 0.00 | 48 | 1015.8 |
| 20260507183042 | 66 | 86 | 2.0 | 7.0 | 0.00 | 0.06 | 0.00 | 44 | 1015.8 |
| 20260507181546 | 65 | 245 | 2.0 | 6.0 | 0.00 | 0.06 | 0.00 | 47 | 1015.9 |
| 20260507180044 | 65 | 96 | 1.0 | 6.0 | 0.00 | 0.06 | 0.00 | 50 | 1016.0 |